[[{"header":{"parameterUnit":"m.s-1","parameterCategory":1,"la1":30.2992,"la2":30.254,"lo1":-89.0895,"lo2":-89.0443,"dy":0.0025,"dx":0.0025,"nx":19,"ny":19,"refTime":"2026-04-16T03:00:00:Z","depth":0,"parameterNumber":2,"parameterNumberName":"U-component_of_WINDS"},"data":[0,0,0,-0.5345,-0.5343,-0.527,-0.527,-0.5189,-0.5188,0,0,0,0,0,0,0,0,0,0,0,-0.5376,-0.5375,-0.5345,-0.5343,-0.527,-0.527,-0.5189,-0.5188,0,0,0,0,0,0,0,0,0,0,0,-0.5376,-0.5375,-0.5375,-0.5343,-0.527,-0.527,-0.5189,-0.5239,0,0,0,0,0,0,0,0,0,0,-0.5308,-0.5346,-0.5376,-0.5375,-0.5343,-0.527,-0.527,-0.5241,-0.5236,-0.5228,0,-0.5224,0,-0.5205,-0.5183,-0.5183,0,0,0,-0.5336,-0.535,-0.5323,-0.5375,-0.5342,-0.527,-0.5301,-0.5238,-0.5232,-0.5221,-0.5223,-0.522,-0.5204,-0.5183,-0.5183,-0.5166,-0.5166,0,0,-0.534,-0.5367,-0.5327,-0.5319,-0.5334,-0.5303,-0.5299,-0.5234,-0.5238,-0.5223,-0.5217,-0.5203,-0.5183,-0.5182,-0.5165,-0.5166,0,0,0,-0.5356,-0.537,-0.5343,-0.5323,-0.5309,-0.5301,-0.5296,-0.5241,-0.523,-0.5216,-0.5202,-0.5182,-0.5181,-0.5165,-0.5166,-0.5207,0,0,0,-0.5358,-0.538,-0.5346,-0.5361,-0.5311,-0.5274,-0.5304,-0.5234,-0.5226,-0.5202,-0.5182,-0.5181,-0.5165,-0.5165,-0.5205,-0.5222,0,0,0,-0.5377,-0.5382,-0.5375,-0.5363,-0.5333,-0.5275,-0.526,-0.5232,-0.5217,-0.5183,-0.5181,-0.5164,-0.5165,-0.5204,-0.5219,-0.5227,0,0,0,-0.5404,-0.5411,-0.5376,-0.5377,-0.5334,-0.5302,-0.526,-0.5234,-0.521,-0.5182,-0.5165,-0.5165,-0.5203,-0.5218,-0.5225,-0.5239,-0.5247,0,0,-0.5427,-0.5414,-0.5413,-0.538,-0.5362,-0.5311,-0.5297,-0.5248,-0.5218,-0.5184,-0.5184,-0.5206,-0.5219,-0.5226,-0.5281,-0.5288,0,0,0,-0.543,-0.5429,-0.5418,-0.5398,-0.5362,-0.5333,-0.5283,-0.5264,-0.5235,-0.5207,-0.5209,-0.5216,-0.5219,-0.5225,-0.523,-0.5231,-0.5169,-0.5169,-0.5169,-0.5501,-0.5465,-0.5461,-0.5417,-0.5398,-0.5348,-0.5328,-0.5295,-0.5262,-0.5263,-0.5253,-0.5291,-0.5298,-0.5302,-0.5304,-0.5257,-0.5257,-0.5257,-0.5257,-0.5532,-0.5526,-0.5486,-0.5468,-0.543,-0.5413,-0.5365,-0.5343,-0.5321,-0.5295,-0.5296,-0.5272,-0.5311,-0.531,-0.526,-0.5259,-0.5259,-0.5259,-0.5259,-0.5575,-0.5567,-0.5546,-0.5514,-0.5493,-0.5447,-0.543,-0.5395,-0.5361,-0.5362,-0.5348,-0.5347,-0.5343,-0.5358,-0.5358,-0.5358,-0.5358,-0.5358,-0.5358,-0.5629,-0.5604,-0.5595,-0.5559,-0.5542,-0.5515,-0.5466,-0.5448,-0.5418,-0.5394,-0.5394,-0.5362,-0.5321,-0.5313,-0.536,-0.536,-0.536,-0.536,-0.5359,-0.5675,-0.5659,-0.5645,-0.5628,-0.5584,-0.5566,-0.5522,-0.5488,-0.5468,-0.546,-0.5428,-0.5404,-0.5387,-0.5383,-0.5375,-0.5436,-0.5436,-0.5436,-0.5436,-0.5712,-0.5701,-0.5679,-0.5655,-0.5627,-0.5587,-0.5571,-0.5533,-0.549,-0.5475,-0.5461,-0.5448,-0.5445,-0.543,-0.5424,-0.5416,-0.5486,-0.5486,-0.5486,-0.5739,-0.5724,-0.5718,-0.5678,-0.5642,-0.561,-0.5594,-0.5567,-0.5515,-0.5488,-0.5463,-0.5461,-0.5439,-0.5434,-0.5405,-0.5397,-0.5382,0,0]},{"header":{"parameterUnit":"m.s-1","parameterCategory":1,"la1":30.2992,"la2":30.254,"lo1":-89.0895,"lo2":-89.0443,"dy":0.0025,"dx":0.0025,"nx":19,"ny":19,"refTime":"2026-04-16T03:00:00:Z","depth":0,"parameterNumber":3,"parameterNumberName":"V-component_of_WINDS"},"data":[0,0,0,3.1998,3.1997,3.1907,3.1906,3.1821,3.182,0,0,0,0,0,0,0,0,0,0,0,3.2045,3.2045,3.1998,3.1997,3.1907,3.1906,3.1821,3.182,0,0,0,0,0,0,0,0,0,0,0,3.2045,3.2045,3.2046,3.1996,3.1907,3.1906,3.1821,3.1878,0,0,0,0,0,0,0,0,0,0,3.196,3.2024,3.2045,3.2046,3.1996,3.1907,3.1906,3.188,3.1874,3.1875,0,3.1883,0,3.1851,3.1817,3.1817,0,0,0,3.1981,3.2029,3.1986,3.2046,3.1995,3.1908,3.1943,3.1876,3.187,3.1868,3.1882,3.1878,3.185,3.1817,3.1816,3.1879,3.188,0,0,3.1986,3.204,3.1991,3.1983,3.2002,3.1946,3.194,3.1872,3.189,3.1882,3.1875,3.1848,3.1816,3.1816,3.1878,3.1879,0,0,0,3.2011,3.2044,3.2002,3.1988,3.1969,3.1944,3.1937,3.1893,3.1875,3.1874,3.1847,3.1816,3.1815,3.1877,3.1878,3.1984,0,0,0,3.2013,3.2058,3.2005,3.2037,3.1971,3.1931,3.1961,3.188,3.1871,3.1848,3.1816,3.1815,3.1876,3.1878,3.1978,3.2025,0,0,0,3.2044,3.2062,3.2056,3.204,3.2004,3.1931,3.1908,3.1877,3.1855,3.1817,3.1815,3.1875,3.1877,3.1973,3.2016,3.2057,0,0,0,3.2092,3.215,3.2059,3.2112,3.2005,3.1997,3.1908,3.1899,3.1878,3.1816,3.1876,3.1878,3.1972,3.2011,3.2052,3.2102,3.2128,0,0,3.2195,3.2164,3.2191,3.2107,3.2129,3.2006,3.2042,3.1972,3.1917,3.1894,3.1895,3.198,3.2016,3.2056,3.2252,3.2273,0,0,0,3.2242,3.2262,3.2256,3.2241,3.2189,3.2148,3.2066,3.2039,3.2017,3.1917,3.2003,3.2023,3.2045,3.2066,3.2084,3.2098,3.189,3.189,3.189,3.2466,3.2394,3.2433,3.2351,3.2337,3.2251,3.2232,3.218,3.2112,3.2133,3.2126,3.2254,3.2281,3.2294,3.231,3.2146,3.2146,3.2147,3.2147,3.261,3.2627,3.2534,3.254,3.2463,3.2465,3.2384,3.2335,3.2324,3.2253,3.2269,3.2199,3.2319,3.233,3.2154,3.2153,3.2152,3.2151,3.2151,3.2749,3.2745,3.2712,3.2681,3.2665,3.2577,3.2572,3.2501,3.2434,3.2449,3.2434,3.2432,3.2421,3.2447,3.2447,3.2447,3.2448,3.2448,3.2448,3.2907,3.2866,3.2872,3.2822,3.2802,3.2766,3.2679,3.2656,3.2612,3.2561,3.256,3.2489,3.2345,3.231,3.2455,3.2454,3.2453,3.2452,3.2452,3.3081,3.303,3.304,3.302,3.2953,3.2941,3.285,3.281,3.278,3.278,3.2704,3.2609,3.2571,3.2557,3.2528,3.272,3.272,3.272,3.272,3.3199,3.3174,3.3167,3.314,3.3104,3.3023,3.3033,3.2965,3.2886,3.2863,3.2824,3.2779,3.2767,3.2737,3.2718,3.269,3.2919,3.2919,3.2919,3.3303,3.327,3.3294,3.3219,3.3161,3.3113,3.3119,3.3089,3.2989,3.2926,3.2843,3.2834,3.2761,3.2741,3.2679,3.2651,3.2598,0,0]}]]